TITAN 3C TRANSTAGE DEB, 43456

Orbit data source: Space-Track

TITAN 3C TRANSTAGE DEB, 43456 is space debris in GEO originally from a launch on Sun, 09 Feb 1969 UTC launched from the Air Force Eastern Test Range (AFETR). Debris objects in space refer to the collection of defunct objects orbiting the Earth. Examples of debris include non-operational satellites, rocket bodies, and fragments generated from explosions, collisions, or faulty payload assembly.

Not visible in the next 10 days
Identifier
43456, 1969-013P
Orbit
GEO
Last TLE update
23 hours ago
Origin
Manufacturer
Martin Marietta
Mission
Spacecraft
Bus & Motor
Unknown
Mass
Unknown
Launch date (UTC)
1969-02-09 (56 years ago)
Launch vehicle
Unknown
Launch site
Air Force Eastern Test Range (AFETR)
Object type
Payload
Rocket body
Debris
Shape & HBR
Unknown
Radar Cross Section
RCS unknown

Expand to show TLE details & history

TLE from 23 hours ago
0 TITAN 3C TRANSTAGE DEB
1 43456U 69013P   25181.39584730 -.00000023  00000-0  00000-0 0  9993
2 43456   1.2861  35.7214 0971769  60.5556 308.6697  1.02737118  3114
Epoch: 2025-06-30T09:30Z
TLE epoch observation values (Epoch: 2025-06-30T09:30:01.206Z)
Latitude
-0°
Longitude
-25.65694°
Altitude
32,843.565 km
Speed
3.274 km/s
True Right ascension
02h 22m 13s
True Declination
0° 00' 00"
Sunlit
Object was in daylight at epoch
Visualization orbit readout
Latitude
-0.03856°
Longitude
-27.37002°
Altitude
32,941.108 km
Speed
3.266 km/s
Apparent Right ascension
02h 43m 52s
Apparent Declination
-5° 55' 49"
Sunlit
Object is in daylight
Visualization observer readout
Local Sidereal Time
20:23:47
Azimuth
91.352° ESE
Elevation
-7.647°
Doppler factor
1
Orbital elements
Apogee altitude
39,142.162 km
Perigee altitude
31,078.701 km
Semi-major axis
41,488.569 km
Eccentricity
0.09718
Inclination
1.2861°
RAAN
35.7214°
Arg. of periapsis
60.5556°
True anomaly
Unknown
Mean anomaly
308.6697°
Eccentric anomaly
Unknown
Mean motion
0.25683 °/min
Orbital period
1,401.69 mins
BSTAR
0
Loading historical data...
43456 neighbors
Loading maneuver chart data...
Loading SW <> Apogee altitude chart data...

TITAN 3C TRANSTAGE DEB Visibility

Observer location: undefined°, undefined°

TITAN 3C TRANSTAGE DEB is likely not visible in the next few days
Span
Click to sort rows by Start time (UTC) header in descending order
Start Az.
Max El. time (UTC)
Max El. Az.
Max El.
End time (UTC)
End Az.
|